Regional Weather Roundup
Issued by NWS

Home | Current Version | Previous Version | Text Only | Print | Product List | Glossary On
Versions: 1 2 3 4 5 6 7 8 9 10 11 12 13 14 15 16 17 18 19 20 21 22 23 24 25 26 27 28 29 30 31 32 33 34 35 36 37 38 39 40 41 42 43 44 45 46 47 48 49 50
000
ASUS46 KSEW 061810
RWRWA

WASHINGTON REGIONAL WEATHER ROUNDUP
NATIONAL WEATHER SERVICE SEATTLE WA
1100 AM PDT WED MAY 06 2015

NOTE:"FAIR" INDICATES FEW OR NO CLOUDS BELOW 12,000 FEET WITH NO
SIGNIFICANT WEATHER AND/OR OBSTRUCTIONS TO VISIBILITY.

WAZ505-507>509-061900-
SEATTLE, TACOMA, EVERETT, AND VICINITY

CITY           SKY/WX    TMP DP  RH WIND       PRES   REMARKS
EVERETT        CLOUDY    50  42  74 N7        30.14S
6HR MIN TEMP:  42; 6HR MAX TEMP:  51;

BOEING FIELD   CLOUDY    53  42  66 VRB6      30.15S
6HR MIN TEMP:  47; 6HR MAX TEMP:  54;

RENTON         CLOUDY    53  42  66 N6        30.14S
6HR MIN TEMP:  43; 6HR MAX TEMP:  53;

SEATAC AIRPORT CLOUDY    50  43  77 N7        30.15S
6HR MIN TEMP:  45; 6HR MAX TEMP:  52;

JBLM-MCCHORD   CLOUDY    52  46  82 VRB7      30.14S
PUYALLUP       DRIZZLE   50  45  81 CALM      30.14S
BREMERTON      CLOUDY    52  43  71 E3        30.17S
6HR MIN TEMP:  34; 6HR MAX TEMP:  52;

JBLM-FT LEWIS  NOT AVBL
TACOMA NARROWS PTSUNNY   52  41  66 N8        30.15S
6HR MIN TEMP:  44; 6HR MAX TEMP:  52;

$$

WAZ001-503-506-510-514-515-061900-
NORTH INTERIOR

CITY           SKY/WX    TMP DP  RH WIND       PRES   REMARKS
BELLINGHAM     CLOUDY    53  44  71 NW3       30.14S
6HR MIN TEMP:  41; 6HR MAX TEMP:  55; 6HR PCP:  0.02;

FRIDAY HARBOR  CLOUDY    53  44  71 VRB6      30.16S
6HR MIN TEMP:  37; 6HR MAX TEMP:  54;

EASTSOUND      SUNNY     52  45  76 CALM      30.14R
PORT ANGELES   CLOUDY    52  44  74 VRB5      30.16R
6HR MIN TEMP:  42; 6HR MAX TEMP:  52;

NAS WHIDBEY    PTSUNNY   53  44  71 W7        30.16R
6HR MIN TEMP:  48; 6HR MAX TEMP:  53; 6HR PCP: TRACE;

ARLINGTON      MOSUNNY   54  43  66 NW5       30.15F
6HR MIN TEMP:  37; 6HR MAX TEMP:  54;

BURLINGTON     PTSUNNY   54  46  76 VRB3      30.14F
$$

WAZ020-022-039-040-504-511-512-061900-
SOUTHWEST INTERIOR

CITY           SKY/WX    TMP DP  RH WIND       PRES   REMARKS
SHELTON        MOSUNNY   52  41  66 VRB3      30.13S
6HR MIN TEMP:  32; 6HR MAX TEMP:  52;

OLYMPIA        PTSUNNY   50  42  74 CALM      30.15S
6HR MIN TEMP:  40; 6HR MAX TEMP:  50;

CHEHALIS       FAIR      54  45  71 CALM      30.15S
KELSO          PTSUNNY   54  39  58 N9        30.17S
6HR MIN TEMP:  46; 6HR MAX TEMP:  54;

VANCOUVER      MOSUNNY   54  42  64 W8        30.12F
6HR MIN TEMP:  47; 6HR MAX TEMP:  54; 6HR PCP:  0.02;

SCAPPOOSE, OR  PTSUNNY   55  40  56 N5        30.12S
6HR MIN TEMP:  44; 6HR MAX TEMP:  56; 6HR PCP:  0.01;

PORTLAND, OR   PTSUNNY   53  43  68 NW7       30.13F
6HR MIN TEMP:  47; 6HR MAX TEMP:  54; 6HR PCP:  0.03;

$$

WAZ021-516-517-061900-
WASHINGTON COAST

CITY           SKY/WX    TMP DP  RH WIND       PRES   REMARKS
FORKS          CLOUDY    54  45  71 CALM      30.15S
6HR MIN TEMP:  34; 6HR MAX TEMP:  54;

HOQUIAM        PTSUNNY   54  43  66 NW8       30.15S
6HR MIN TEMP:  39; 6HR MAX TEMP:  54;

ASTORIA, OR    MOSUNNY   57  44  62 VRB5      30.15R
6HR MIN TEMP:  43; 6HR MAX TEMP:  57;

$$

WAZ019-023-024-040-518-519-061900-
CASCADE MOUNTAINS AND COLUMBIA GORGE

CITY           SKY/WX    TMP DP  RH WIND       PRES   REMARKS
TROUTDALE, OR  CLOUDY    52  43  71 VRB3      30.12S
6HR MIN TEMP:  47; 6HR MAX TEMP:  52; 6HR PCP:  0.04;

THE DALLES, OR MOSUNNY   61  36  39 NW13G21   30.03F
6HR MIN TEMP:  48; 6HR MAX TEMP:  61;

$$

WAZ026-027-041>044-520-521-061900-
EAST SLOPES

CITY           SKY/WX    TMP DP  RH WIND       PRES   REMARKS
OMAK           MOSUNNY   59  33  37 NE17G25   30.01F
6HR MIN TEMP:  36; 6HR MAX TEMP:  59;

WENATCHEE      SUNNY     59  25  27 NW14      30.00F
6HR MIN TEMP:  43; 6HR MAX TEMP:  59;

ELLENSBURG     SUNNY     58  29  33 NW13      30.00S
6HR MIN TEMP:  41; 6HR MAX TEMP:  58;

YAKIMA         SUNNY     60  27  28 N3        30.02S
6HR MIN TEMP:  32; 6HR MAX TEMP:  60;

$$

WAZ028-034-035-061900-
COLUMBIA BASIN

CITY           SKY/WX    TMP DP  RH WIND       PRES   REMARKS
EPHRATA        SUNNY     60  29  30 N14G20    29.98S
6HR MIN TEMP:  42; 6HR MAX TEMP:  60;

MOSES LAKE     PTSUNNY   56  32  40 NE3       30.00S
6HR MIN TEMP:  37; 6HR MAX TEMP:  57;

PASCO          SUNNY     59  32  36 VRB6      30.03S
6HR MIN TEMP:  34; 6HR MAX TEMP:  59;

HERMISTON, OR  CLOUDY    57  33  40 W8        30.01F
6HR MIN TEMP:  39; 6HR MAX TEMP:  57;

$$

WAZ036>038-061900-
NORTHEAST WASHINGTON

CITY           SKY/WX    TMP DP  RH WIND       PRES   REMARKS
SPOKANE GEIGER MOSUNNY   52  30  43 SW3       29.98F
6HR MIN TEMP:  37; 6HR MAX TEMP:  52;

SPOKANE FELTS  MOSUNNY   55  29  36 S8        30.00S
6HR MIN TEMP:  39; 6HR MAX TEMP:  55;

FAIRCHILD AFB  SUNNY     51  29  42 S5        29.98S
6HR MIN TEMP:  33; 6HR MAX TEMP:  52; 6HR PCP: TRACE;

COEURDALENE,ID SUNNY     54  28  37 SW10      29.98F
6HR MIN TEMP:  34; 6HR MAX TEMP:  54;

DEER PARK      SUNNY     53  31  42 VRB3      29.99S
6HR MIN TEMP:  26; 6HR MAX TEMP:  53;

$$

WAZ029>033-061900-
SOUTHEAST WASHINGTON

CITY           SKY/WX    TMP DP  RH WIND       PRES   REMARKS
PULLMAN        PTSUNNY   52  34  50 W8        30.00F
6HR MIN TEMP:  32; 6HR MAX TEMP:  52;

LEWISTON, ID   CLOUDY    56  32  40 VRB3      29.98F
6HR MIN TEMP:  38; 6HR MAX TEMP:  57;

WALLA WALLA    PTSUNNY   56  32  40 S10       30.01S
6HR MIN TEMP:  42; 6HR MAX TEMP:  56;

PENDLETON, OR  SUNNY     54  33  45 W9        30.00S
6HR MIN TEMP:  39; 6HR MAX TEMP:  55;

$$



USA.gov is the U.S. government's official web portal to all federal, state and local government web resources and services.